Waarnemingen

Advertentie
Mijn weer
Pau, Frankrijk (7610): temperatuur & dauwpunt: 13.10.2018 11:00:00 - 19.10.2018 11:00:00 (CEST)Pau, Frankrijk (7610): temperatuur 5cm: 13.10.2018 11:00:00 - 19.10.2018 11:00:00 (CEST)Pau, Frankrijk (7610): temperatuur -20cm & temperatuur -100cm: 13.10.2018 11:00:00 - 19.10.2018 11:00:00 (CEST)Pau, Frankrijk (7610): windsnelheid & windstoten: 13.10.2018 11:00:00 - 19.10.2018 11:00:00 (CEST)Pau, Frankrijk (7610): windrichting: 13.10.2018 11:00:00 - 19.10.2018 11:00:00 (CEST)Pau, Frankrijk (7610): luchtdruk: 13.10.2018 11:00:00 - 19.10.2018 11:00:00 (CEST)Pau, Frankrijk (7610): zicht: 13.10.2018 11:00:00 - 19.10.2018 11:00:00 (CEST)Pau, Frankrijk (7610): Zonneschijnduur: 13.10.2018 11:00:00 - 19.10.2018 11:00:00 (CEST)Pau, Frankrijk (7610): neerslag: 13.10.2018 11:00:00 - 19.10.2018 11:00:00 (CEST)
Datum & Tijd tt [°C] td [°C] tt 5cm [°C] tt -20cm [°C] tt -100cm [°C] ff [km/u] ff [kn] fx [km/u] fx [kn] dd ppp [hPa] vv [km] sd [min] rr [mm]
19.10.2018 11:00:00 15,5 14,7 15,6 16,7 17,8 0 0 14 8 N 1018,5 10 29 0,0
19.10.2018 10:00:00 13,7 13,2 12,0 16,8 17,8 8 4 13 7 ZO 1018,4 5 1 0,0
19.10.2018 09:00:00 12,4 11,9 11,5 16,8 17,8 5 3 10 5 O 1017,9 1,0 0 0,0
19.10.2018 08:00:00 12,5 12,0 11,8 16,9 17,8 5 3 11 6 O 1017,6 4,2 0 0,0
19.10.2018 07:00:00 12,5 12,0 11,5 16,9 17,9 7 4 11 6 ZO 1017,3 0,1 0 0,0
19.10.2018 06:00:00 12,3 11,8 8,8 16,9 17,9 6 3 10 5 Z 1017,5 0,2 0 0,0
19.10.2018 05:00:00 11,8 11,2 8,8 16,9 17,8 0 0 4 2 N 1016,9 0,2 0 0,0
19.10.2018 04:00:00 12,6 12,0 9,5 17,0 17,9 4 2 8 4 NNO 1016,8 0,8 0 0,0
19.10.2018 03:00:00 13,3 12,5 10,2 17,0 17,9 0 0 3 2 N 1016,8 0,5 0 0,0
19.10.2018 02:00:00 13,6 12,5 10,7 17,0 17,9 2 1 5 3 W 1016,6 0,4 0 0,0
19.10.2018 01:00:00 14,6 13,6 13,3 17,0 17,9 5 3 8 4 ONO 1016,6 11 0 0,0
19.10.2018 00:00:00 14,6 13,5 12,5 17,0 17,9 3 2 5 3 ONO 1016,7 11 0 0,0
18.10.2018 23:00:00 15,0 13,2 11,8 17,0 17,9 0 0 6 3 N 1016,5 16 0 0,0
18.10.2018 22:00:00 16,5 14,0 15,1 16,9 17,9 6 3 7 4 NNO 1015,9 19 0 0,0
18.10.2018 21:00:00 17,5 14,0 16,9 16,9 17,9 4 2 9 5 ONO 1015,8 29 0 0,0
18.10.2018 20:00:00 18,0 13,7 17,5 16,8 17,9 5 3 13 7 ONO 1015,4 33 0 0,0
18.10.2018 19:00:00 18,5 13,8 18,0 16,8 17,9 8 4 21 11 ONO 1014,7 37 0 0,0
18.10.2018 18:00:00 19,1 13,5 19,4 16,7 17,9 14 8 25 13 NO 1014,3 36 0 0,0
18.10.2018 17:00:00 19,6 13,1 20,1 16,7 17,9 13 7 27 14 ONO 1014,2 42 0 0,0
18.10.2018 16:00:00 19,9 12,9 21,1 16,6 17,9 14 8 31 17 ONO 1013,9 29 9 0,0
18.10.2018 15:00:00 19,9 13,6 20,9 16,6 17,9 16 9 31 17 ONO 1014,2 27 28 0,0
18.10.2018 14:00:00 18,6 12,3 19,5 16,6 17,9 15 8 38 21 O 1014,7 29 0 0,0
18.10.2018 13:00:00 18,9 12,4 19,8 16,5 17,9 21 11 37 20 ONO 1015,2 31 9 0,0
18.10.2018 12:00:00 17,2 14,8 17,7 16,5 17,9 5 3 12 6 WZW 1015,5 17 18 0,0
18.10.2018 11:00:00 15,4 14,3 13,9 16,6 17,9 - - - - - 1015,8 12 11 0,0
18.10.2018 10:00:00 13,3 12,5 12,8 16,6 17,9 3 2 6 4 N 1015,9 17 0 0,2
18.10.2018 09:00:00 12,6 12,0 11,4 16,7 17,9 2 1 8 4 ZZO 1015,4 16 0 0,0
18.10.2018 08:00:00 11,7 11,1 10,7 16,7 17,9 4 2 8 5 ONO 1015,0 13 0 0,0
18.10.2018 07:00:00 11,9 11,3 10,1 16,8 17,9 5 3 8 5 O 1014,9 10 0 0,0
18.10.2018 06:00:00 12,3 11,7 11,1 16,8 17,9 4 2 8 5 OZO 1014,7 8 0 0,0
18.10.2018 05:00:00 12,3 11,8 11,1 16,8 17,9 6 4 9 5 ZO 1014,8 5 0 0,0
18.10.2018 04:00:00 11,3 10,7 8,8 16,9 18,0 2 1 6 3 O 1015,0 0,3 0 0,0
18.10.2018 03:00:00 11,7 10,9 7,9 16,9 17,9 0 0 5 3 N 1015,1 0,2 0 0,0
18.10.2018 02:00:00 12,5 11,9 8,9 16,9 17,9 4 2 8 4 W 1015,3 1,0 0 0,0
18.10.2018 01:00:00 12,5 11,7 9,8 17,0 17,9 5 3 7 4 ZW 1015,3 7 0 0,0
18.10.2018 00:00:00 13,4 12,5 10,1 17,0 18,0 4 2 13 7 O 1015,2 14 0 0,0
17.10.2018 23:00:00 13,1 12,0 9,5 17,0 18,0 8 4 11 6 O 1015,3 17 0 0,0
17.10.2018 22:00:00 13,4 12,0 9,8 16,9 18,0 6 4 10 6 O 1015,2 22 0 0,0
17.10.2018 21:00:00 14,9 12,8 11,7 16,9 18,0 5 3 8 4 O 1015,0 28 0 0,0
17.10.2018 20:00:00 16,2 12,9 14,2 16,9 18,0 4 2 10 5 ONO 1014,9 39 0 0,0
17.10.2018 19:00:00 17,9 12,8 16,8 16,8 18,0 6 3 15 8 ONO 1014,4 50 29 0,0
17.10.2018 18:00:00 18,9 11,9 18,9 16,7 18,0 5 3 16 9 O 1014,2 59 13 0,0
17.10.2018 17:00:00 19,1 12,4 20,7 16,6 18,0 4 2 17 9 O 1014,4 59 2 0,0
17.10.2018 16:00:00 18,6 13,5 19,7 16,6 18,0 5 3 15 8 NO 1014,9 53 0 0,0
17.10.2018 15:00:00 18,0 12,9 19,3 16,6 18,0 5 3 11 6 N 1015,5 49 4 0,0
17.10.2018 14:00:00 17,3 13,6 19,2 16,6 18,0 3 2 9 5 Z 1016,3 43 15 0,0
17.10.2018 13:00:00 15,2 13,6 16,3 16,6 18,0 3 2 9 5 OZO 1017,6 18 0 0,0
17.10.2018 12:00:00 14,0 13,5 14,8 16,6 18,0 4 2 9 5 ZZO 1018,0 19 0 0,0
17.10.2018 11:00:00 13,2 12,9 13,8 16,7 18,0 4 2 9 5 ZZO 1018,5 2,3 0 0,0
17.10.2018 10:00:00 12,4 11,9 11,6 16,7 18,0 4 2 8 5 Z 1018,7 0,2 9 0,0
17.10.2018 09:00:00 11,0 10,5 10,1 16,8 18,0 3 2 5 3 ZO 1018,8 0,1 0 0,0
17.10.2018 08:00:00 10,4 9,9 9,0 16,9 18,0 2 1 7 4 NO 1018,8 0,7 0 0,0
17.10.2018 07:00:00 10,1 9,6 9,2 16,9 18,0 3 2 6 3 ONO 1019,0 0,2 0 0,2
17.10.2018 06:00:00 10,6 10,1 8,4 17,0 18,1 0 0 7 4 N 1018,6 0,2 0 0,0
17.10.2018 05:00:00 10,7 10,2 8,7 17,0 18,1 4 2 9 5 OZO 1018,6 0,3 0 0,0
17.10.2018 04:00:00 10,5 9,9 8,3 17,1 18,1 6 3 11 6 OZO 1018,8 0,3 0 0,0
17.10.2018 03:00:00 10,4 9,8 7,1 17,1 18,1 3 2 9 5 ONO 1019,4 5 0 0,0
17.10.2018 02:00:00 10,7 10,1 7,2 17,1 18,1 6 3 9 5 OZO 1019,6 0,6 0 0,2
17.10.2018 01:00:00 11,0 10,2 8,4 17,1 18,1 0 0 9 5 N 1019,9 6 0 0,0
17.10.2018 00:00:00 11,6 10,7 8,9 17,1 18,1 7 4 8 5 ZO 1020,1 2,4 0 0,0
16.10.2018 23:00:00 12,7 11,6 9,1 17,1 18,1 6 4 8 4 ZZO 1020,2 14 0 0,0
16.10.2018 22:00:00 12,9 11,8 9,9 17,1 18,1 4 2 11 6 OZO 1019,9 16 0 0,0
16.10.2018 21:00:00 14,6 12,1 11,3 17,0 18,1 8 5 11 6 ZZW 1019,1 40 0 0,0
16.10.2018 20:00:00 15,3 12,8 12,6 17,0 18,1 8 4 11 6 WNW 1019,0 44 0 0,0
16.10.2018 19:00:00 17,7 12,8 18,1 16,8 18,1 6 3 15 8 WNW 1018,1 60 52 0,0
16.10.2018 18:00:00 18,8 13,2 22,4 16,7 18,1 10 5 23 12 N 1017,6 51 60 0,0
16.10.2018 17:00:00 19,4 12,9 20,7 16,6 18,1 10 5 21 11 NW 1017,4 49 38 0,0
16.10.2018 16:00:00 19,6 13,5 21,1 16,6 18,1 9 5 22 12 N 1017,2 59 50 0,0
16.10.2018 15:00:00 18,3 14,2 20,4 16,6 18,1 13 7 24 13 NW 1017,2 43 25 0,0
16.10.2018 14:00:00 17,9 14,2 23,9 16,5 18,1 9 5 19 11 WNW 1017,1 36 60 0,0
16.10.2018 13:00:00 14,8 14,2 16,8 16,5 18,1 6 3 16 8 WNW 1017,5 20 38 0,0
16.10.2018 12:00:00 13,0 12,5 13,6 16,6 18,1 4 2 9 5 WNW 1017,5 8 3 0,0
16.10.2018 11:00:00 11,7 11,2 12,1 16,7 18,1 5 3 10 5 ZZW 1017,3 0,3 0 0,0
16.10.2018 10:00:00 10,6 10,1 9,8 16,8 18,1 8 4 15 8 ZZO 1017,0 0,5 19 0,0
16.10.2018 09:00:00 8,4 8,0 6,5 16,9 18,1 0 0 5 3 N 1016,5 5 11 0,0
16.10.2018 08:00:00 8,1 7,7 5,5 16,9 18,1 3 2 5 3 ZZW 1015,7 0,1 0 0,0
16.10.2018 07:00:00 8,4 8,0 5,3 17,0 18,1 3 1 9 5 ZO 1015,1 0,2 0 0,0
16.10.2018 06:00:00 8,8 8,2 5,4 17,1 18,2 4 2 6 3 ZO 1014,5 0,5 0 0,0
16.10.2018 05:00:00 9,1 8,5 5,6 17,2 18,2 5 3 8 4 ONO 1013,8 0,9 0 0,2
16.10.2018 04:00:00 9,6 9,0 6,5 17,2 18,1 4 2 11 6 OZO 1013,5 0,3 0 0,0
16.10.2018 03:00:00 10,0 9,4 6,5 17,3 18,2 5 3 10 5 O 1013,4 3,0 0 0,0
16.10.2018 02:00:00 9,9 9,3 6,7 17,3 18,1 4 2 7 4 O 1013,1 8 0 0,0
16.10.2018 01:00:00 10,5 9,7 7,5 17,3 18,1 5 3 6 3 ZO 1013,0 0,4 0 0,0
16.10.2018 00:00:00 10,8 10,0 7,4 17,4 18,2 0 0 8 4 N 1012,8 4,6 0 0,0
15.10.2018 23:00:00 11,0 9,9 7,2 17,3 18,1 2 1 8 4 ZZO 1012,4 20 0 0,0
15.10.2018 22:00:00 12,1 11,0 8,7 17,4 18,2 4 2 6 3 ONO 1011,6 35 0 0,0
15.10.2018 21:00:00 13,3 11,2 10,9 17,3 18,2 4 2 8 4 Z 1010,9 43 0 0,0
15.10.2018 20:00:00 14,7 11,8 12,3 17,3 18,2 5 3 14 7 ONO 1010,3 53 0 0,0
15.10.2018 19:00:00 16,1 12,3 15,7 17,2 18,1 9 5 18 10 NO 1009,6 20 7 0,0
15.10.2018 18:00:00 16,7 12,0 17,2 17,1 18,1 9 5 19 11 NNO 1009,1 59 2 0,0
15.10.2018 17:00:00 17,2 12,3 18,6 17,1 18,2 9 5 17 9 N 1008,4 42 6 0,0
15.10.2018 16:00:00 17,1 13,0 18,4 17,1 18,1 5 3 15 8 N 1008,1 38 17 0,0
15.10.2018 15:00:00 17,2 11,5 19,4 17,1 18,2 3 2 14 8 ONO 1008,1 55 4 0,0
15.10.2018 14:00:00 16,1 11,9 18,3 17,0 18,1 5 3 11 6 ONO 1008,4 58 0 0,0
15.10.2018 13:00:00 15,8 12,7 15,5 17,1 18,1 5 3 12 7 O 1008,5 49 13 0,0
15.10.2018 12:00:00 14,3 12,3 14,4 17,1 18,1 7 4 11 6 WZW 1008,6 39 0 0,0
15.10.2018 11:00:00 13,4 12,6 13,0 17,2 18,2 6 3 19 10 WZW 1008,7 26 3 0,2
15.10.2018 10:00:00 12,8 12,3 12,5 17,2 18,2 10 6 15 8 WZW 1008,6 12 0 0,8
15.10.2018 09:00:00 12,4 11,9 12,2 17,3 18,1 7 4 17 9 WZW 1008,2 10 0 0,4
15.10.2018 08:00:00 12,2 11,6 12,0 17,3 18,2 7 4 11 6 ZW 1008,0 10 0 0,4
15.10.2018 07:00:00 12,1 11,5 11,8 17,4 18,2 5 3 9 5 ZW 1007,8 5 0 1,0
15.10.2018 06:00:00 12,0 11,4 11,8 17,5 18,1 4 2 11 6 WZW 1007,9 6 0 1,9
15.10.2018 05:00:00 12,0 11,4 11,9 17,5 18,1 7 4 14 8 WZW 1008,3 2,6 0 2,4
15.10.2018 04:00:00 12,2 11,6 11,9 17,6 18,2 6 4 18 10 ZW 1008,7 3,7 0 3,4
15.10.2018 03:00:00 12,2 11,4 11,9 17,7 18,2 10 5 21 11 WZW 1009,4 3,9 0 3,6
15.10.2018 02:00:00 12,3 11,5 12,0 17,8 18,2 0 0 12 7 N 1009,5 3,8 0 3,7
15.10.2018 01:00:00 12,5 11,7 12,3 17,8 18,1 7 4 14 7 W 1010,1 2,6 0 3,4
15.10.2018 00:00:00 12,6 11,7 12,4 17,9 18,1 6 4 19 10 W 1010,2 10 0 0,8
14.10.2018 23:00:00 12,8 11,7 12,3 17,9 18,1 9 5 25 14 WZW 1010,7 10 0 0,0
14.10.2018 22:00:00 12,9 11,6 12,4 18,0 18,1 14 8 28 15 WZW 1010,3 58 0 0,2
14.10.2018 21:00:00 12,8 11,9 12,4 18,1 18,1 16 9 28 15 WZW 1009,7 24 0 0,4
14.10.2018 20:00:00 12,9 11,8 12,5 18,2 18,2 18 10 36 19 W 1009,5 8 0 2,2
14.10.2018 19:00:00 13,2 12,3 12,9 18,2 18,1 17 9 35 19 WZW 1008,7 17 0 2,8
14.10.2018 18:00:00 13,3 12,4 13,0 18,3 18,1 22 12 40 22 WZW 1008,3 6 0 4,5
14.10.2018 17:00:00 13,6 12,7 13,3 18,3 18,1 30 16 45 24 W 1007,9 2,9 0 8,6
14.10.2018 16:00:00 14,3 13,2 14,0 18,3 18,1 26 14 42 23 W 1006,9 3,8 0 6,5
14.10.2018 15:00:00 15,0 13,5 14,6 18,2 18,1 31 17 53 28 WNW 1006,5 6 0 2,0
14.10.2018 14:00:00 17,1 14,6 17,2 18,3 18,1 32 17 51 28 WNW 1006,1 16 0 0,0
14.10.2018 13:00:00 20,6 15,8 20,7 18,2 18,1 23 13 32 17 WNW 1003,6 33 0 0,0
14.10.2018 12:00:00 20,7 15,9 21,6 18,3 18,1 13 7 21 11 WNW 1003,2 35 0 0,0
14.10.2018 11:00:00 20,9 15,0 21,7 18,3 18,1 8 5 14 8 OZO 1002,6 42 0 0,0
14.10.2018 10:00:00 19,7 14,9 19,2 18,4 18,1 8 4 24 13 O 1002,7 34 56 0,0
14.10.2018 09:00:00 16,1 13,8 11,7 18,4 18,1 6 4 16 8 O 1003,2 21 28 0,0
14.10.2018 08:00:00 15,6 13,4 12,3 18,4 18,1 5 3 25 14 OZO 1003,4 17 0 0,0
14.10.2018 07:00:00 15,7 13,9 12,9 18,5 18,2 11 6 16 9 ZO 1004,0 15 0 0,0
14.10.2018 06:00:00 16,3 14,3 14,5 18,5 18,1 14 8 22 12 O 1004,6 18 0 0,0
14.10.2018 05:00:00 16,8 14,6 14,9 18,6 18,1 11 6 23 12 OZO 1004,8 19 0 0,0
14.10.2018 04:00:00 16,6 14,8 15,4 18,6 18,1 11 6 18 10 O 1005,6 15 0 0,0
14.10.2018 03:00:00 17,3 15,6 15,6 18,6 18,2 8 4 19 10 OZO 1006,3 14 0 0,0
14.10.2018 02:00:00 17,8 16,1 16,5 18,6 18,1 11 6 21 12 OZO 1007,1 14 0 0,0
14.10.2018 01:00:00 18,4 16,7 17,4 18,6 18,1 8 5 18 10 O 1007,7 15 0 0,0
14.10.2018 00:00:00 18,8 16,8 15,9 18,6 18,1 10 5 16 9 O 1008,8 16 0 0,0
13.10.2018 23:00:00 19,4 17,0 16,8 18,6 18,1 10 5 14 8 O 1009,7 20 0 0,0
13.10.2018 22:00:00 20,5 16,7 18,2 18,6 18,1 5 3 22 12 ZZO 1010,1 28 0 0,0
13.10.2018 21:00:00 20,6 15,8 16,9 18,5 18,1 13 7 20 11 O 1010,4 36 0 0,0
13.10.2018 20:00:00 21,3 15,6 17,2 18,3 18,1 8 5 12 6 O 1010,9 42 0 0,0
13.10.2018 19:00:00 24,3 15,5 20,7 18,2 18,1 7 4 18 10 O 1010,7 46 0 0,0
13.10.2018 18:00:00 26,8 15,5 27,9 18,1 18,1 12 6 25 13 O 1010,9 40 60 0,0
13.10.2018 17:00:00 27,8 15,1 28,9 18,0 18,1 13 7 23 12 ONO 1011,2 39 24 0,0
13.10.2018 16:00:00 27,7 15,0 31,3 17,9 18,1 13 7 22 12 ONO 1011,9 46 56 0,0
13.10.2018 15:00:00 27,9 14,5 32,2 17,8 18,1 9 5 21 12 NO 1012,8 43 60 0,0
13.10.2018 14:00:00 27,5 15,2 32,1 17,8 18,1 13 7 25 14 NO 1013,6 51 60 0,0
13.10.2018 13:00:00 26,1 14,9 29,9 17,8 18,1 10 5 16 9 O 1014,5 45 60 0,0
13.10.2018 12:00:00 24,1 14,2 28,2 17,8 18,1 9 5 16 8 O 1015,3 55 60 0,0
13.10.2018 11:00:00 22,1 14,2 24,4 17,8 18,1 9 5 18 10 O 1016,0 20 60 0,0

tt = temperatuur
td = dauwpunt
tt 5cm = temperatuur 5cm
tt -20cm = temperatuur -20cm
tt -100cm = temperatuur -100cm
ff = windsnelheid
fx = windstoten
dd = windrichting
ppp = luchtdruk
vv = zicht
sd = Zonneschijnduur
rr = neerslag

Weerstations in de omgeving